When you browse on this site, cookies collect data to enhance your experience and personalize the content and advertising you see.
Visit our Privacy Policy to learn more. By continuing to use the site, you agree to this use of cookies and data.
  • En España
  • Lista de países
  • Para 7 días
  • Temperatura del agua
  • El tiempo en el mapa
  • Informadores
  • user-avatar
    Iniciar sesión

    Tiempo cada hora Mbandaka

    Hoy, 16 Diciembre, Lunes

    Tiempo Temperatura Precipitaciones Viento Presión Humedad
    00:00 +24°C° 0.1 mm 1 mps 730 mmHg 92%
    01:00 +24°C° 0 mm 1 mps 730 mmHg 93%
    02:00 +24°C° 0.4 mm 1 mps 730 mmHg 93%
    03:00 +24°C° 0.4 mm 1 mps 730 mmHg 93%
    04:00 +23°C° 0.4 mm 1 mps 730 mmHg 94%
    05:00 +24°C° 0 mm 1 mps 730 mmHg 93%
    06:00 +24°C° 0 mm 1 mps 730 mmHg 92%
    07:00 +24°C° 0 mm 1 mps 731 mmHg 91%
    08:00 +26°C° 0 mm 1 mps 731 mmHg 82%
    09:00 +28°C° 0 mm 1 mps 731 mmHg 72%
    10:00 +30°C° 0 mm 1 mps 732 mmHg 62%
    11:00 +30°C° 0 mm 1 mps 731 mmHg 63%
    12:00 +30°C° 0 mm 1 mps 730 mmHg 63%
    13:00 +30°C° 0 mm 1 mps 729 mmHg 63%
    14:00 +30°C° 0 mm 1 mps 728 mmHg 61%
    15:00 +31°C° 0 mm 1 mps 727 mmHg 58%
    16:00 +32°C° 0 mm 1 mps 727 mmHg 56%
    17:00 +30°C° 0 mm 1 mps 727 mmHg 63%
    18:00 +28°C° 0 mm 1 mps 727 mmHg 70%
    19:00 +26°C° 0 mm 1 mps 728 mmHg 77%
    20:00 +26°C° 0 mm 1 mps 728 mmHg 78%
    21:00 +26°C° 0 mm 1 mps 729 mmHg 80%
    22:00 +25°C° 0 mm 1 mps 729 mmHg 81%
    23:00 +25°C° 0 mm 1 mps 729 mmHg 83%

    Mañana, 17 Diciembre, Martes

    Tiempo Temperatura Precipitaciones Viento Presión Humedad
    00:00 +25°C° 0 mm 1 mps 729 mmHg 84%
    01:00 +25°C° 0 mm 1 mps 728 mmHg 86%
    02:00 +24°C° 0 mm 1 mps 728 mmHg 87%
    03:00 +24°C° 0 mm 1 mps 728 mmHg 89%
    04:00 +24°C° 0 mm 1 mps 728 mmHg 90%
    05:00 +25°C° 0 mm 1 mps 729 mmHg 87%
    06:00 +25°C° 0 mm 1 mps 729 mmHg 84%
    07:00 +26°C° 0 mm 1 mps 730 mmHg 81%
    08:00 +28°C° 0 mm 1 mps 730 mmHg 70%
    09:00 +31°C° 0 mm 1 mps 730 mmHg 60%
    10:00 +33°C° 0 mm 1 mps 730 mmHg 50%
    11:00 +34°C° 0 mm 1 mps 729 mmHg 46%
    12:00 +35°C° 0 mm 1 mps 729 mmHg 42%
    13:00 +37°C° 0 mm 1 mps 728 mmHg 38%
    14:00 +36°C° 0 mm 1 mps 727 mmHg 39%
    15:00 +36°C° 0 mm 1 mps 727 mmHg 40%
    16:00 +36°C° 0 mm 1 mps 726 mmHg 41%
    17:00 +33°C° 0 mm 1 mps 727 mmHg 48%
    18:00 +31°C° 0 mm 1 mps 727 mmHg 55%
    19:00 +27°C° 0 mm 0 mps 728 mmHg 62%
    20:00 +26°C° 0 mm 0 mps 728 mmHg 65%
    21:00 +26°C° 0 mm 0 mps 728 mmHg 68%
    22:00 +25°C° 0 mm 0 mps 729 mmHg 71%
    23:00 +25°C° 0 mm 0 mps 729 mmHg 72%

    Pasado mañana, 18 Diciembre, Miércoles

    Tiempo Temperatura Precipitaciones Viento Presión Humedad
    00:00 +24°C° 0 mm 0 mps 728 mmHg 73%
    01:00 +24°C° 0 mm 0 mps 728 mmHg 75%
    02:00 +24°C° 0 mm 0 mps 728 mmHg 76%
    03:00 +23°C° 0 mm 0 mps 728 mmHg 78%
    04:00 +23°C° 0 mm 0 mps 728 mmHg 79%
    05:00 +23°C° 0.1 mm 0 mps 729 mmHg 80%
    06:00 +26°C° 0.1 mm 1 mps 729 mmHg 81%
    07:00 +26°C° 0.1 mm 1 mps 730 mmHg 81%
    08:00 +28°C° 0 mm 1 mps 730 mmHg 74%
    09:00 +30°C° 0 mm 1 mps 730 mmHg 66%
    10:00 +32°C° 0 mm 1 mps 731 mmHg 59%
    11:00 +34°C° 0 mm 1 mps 730 mmHg 53%
    12:00 +35°C° 0 mm 1 mps 729 mmHg 47%
    13:00 +37°C° 0 mm 1 mps 728 mmHg 41%
    14:00 +34°C° 0.2 mm 1 mps 728 mmHg 49%
    15:00 +32°C° 0.2 mm 2 mps 727 mmHg 57%
    16:00 +30°C° 0.2 mm 2 mps 727 mmHg 65%
    17:00 +28°C° 0.4 mm 2 mps 727 mmHg 72%
    18:00 +27°C° 0.4 mm 1 mps 728 mmHg 78%
    19:00 +26°C° 0.4 mm 1 mps 728 mmHg 85%
    20:00 +25°C° 0 mm 1 mps 729 mmHg 86%
    21:00 +25°C° 0 mm 1 mps 729 mmHg 87%
    22:00 +25°C° 0 mm 1 mps 730 mmHg 88%
    23:00 +25°C° 0 mm 1 mps 730 mmHg 88%

    19 Diciembre, Jueves

    Tiempo Temperatura Precipitaciones Viento Presión Humedad
    00:00 +25°C° 0 mm 1 mps 729 mmHg 89%
    01:00 +25°C° 0 mm 1 mps 729 mmHg 90%
    02:00 +25°C° 0 mm 1 mps 729 mmHg 90%
    03:00 +25°C° 0 mm 1 mps 729 mmHg 91%
    04:00 +23°C° 0 mm 0 mps 729 mmHg 91%
    05:00 +25°C° 0 mm 1 mps 729 mmHg 90%
    06:00 +25°C° 0 mm 1 mps 730 mmHg 89%
    07:00 +26°C° 0 mm 1 mps 731 mmHg 88%
    08:00 +28°C° 0 mm 1 mps 731 mmHg 79%
    09:00 +30°C° 0 mm 1 mps 731 mmHg 70%
    10:00 +32°C° 0 mm 1 mps 731 mmHg 62%
    11:00 +32°C° 0.6 mm 1 mps 730 mmHg 64%
    12:00 +32°C° 0.6 mm 1 mps 729 mmHg 66%
    13:00 +31°C° 0.6 mm 1 mps 728 mmHg 68%
    14:00 +31°C° 0.6 mm 1 mps 728 mmHg 68%
    15:00 +31°C° 0.6 mm 2 mps 728 mmHg 68%
    16:00 +31°C° 0.6 mm 2 mps 727 mmHg 68%
    17:00 +29°C° 0.1 mm 2 mps 728 mmHg 74%
    18:00 +28°C° 0.1 mm 2 mps 728 mmHg 80%
    19:00 +26°C° 0.1 mm 2 mps 729 mmHg 86%
    20:00 +26°C° 0 mm 2 mps 729 mmHg 86%
    21:00 +26°C° 0 mm 2 mps 730 mmHg 85%
    22:00 +26°C° 0 mm 2 mps 730 mmHg 85%
    23:00 +25°C° 0 mm 2 mps 730 mmHg 87%

    20 Diciembre, Viernes

    Tiempo Temperatura Precipitaciones Viento Presión Humedad
    00:00 +25°C° 0 mm 2 mps 730 mmHg 89%
    01:00 +24°C° 0 mm 1 mps 730 mmHg 91%
    02:00 +24°C° 0 mm 1 mps 730 mmHg 92%
    03:00 +24°C° 0 mm 1 mps 730 mmHg 93%
    04:00 +23°C° 0 mm 1 mps 730 mmHg 95%
    05:00 +24°C° 0 mm 1 mps 730 mmHg 92%
    06:00 +24°C° 0 mm 2 mps 731 mmHg 90%
    07:00 +25°C° 0 mm 2 mps 731 mmHg 88%
    08:00 +27°C° 0 mm 2 mps 732 mmHg 80%
    09:00 +29°C° 0 mm 2 mps 732 mmHg 72%
    10:00 +31°C° 0 mm 2 mps 732 mmHg 63%
    11:00 +31°C° 0.3 mm 2 mps 731 mmHg 63%
    12:00 +31°C° 0.3 mm 1 mps 730 mmHg 62%
    13:00 +32°C° 0.3 mm 1 mps 730 mmHg 61%
    14:00 +31°C° 0.7 mm 1 mps 729 mmHg 65%
    15:00 +31°C° 0.7 mm 1 mps 729 mmHg 69%
    16:00 +30°C° 0.7 mm 1 mps 728 mmHg 73%
    17:00 +29°C° 0.7 mm 1 mps 729 mmHg 78%
    18:00 +27°C° 0.7 mm 1 mps 729 mmHg 84%
    19:00 +25°C° 0.7 mm 1 mps 729 mmHg 89%
    20:00 +25°C° 0 mm 1 mps 730 mmHg 90%
    21:00 +25°C° 0 mm 1 mps 730 mmHg 91%
    22:00 +24°C° 0 mm 1 mps 730 mmHg 92%
    23:00 +24°C° 0 mm 1 mps 730 mmHg 92%

    21 Diciembre, Sábado

    Tiempo Temperatura Precipitaciones Viento Presión Humedad
    00:00 +24°C° 0 mm 1 mps 730 mmHg 93%
    01:00 +24°C° 0 mm 1 mps 730 mmHg 93%
    02:00 +24°C° 0 mm 1 mps 730 mmHg 93%
    03:00 +24°C° 0 mm 1 mps 730 mmHg 94%
    04:00 +24°C° 0 mm 1 mps 730 mmHg 94%
    05:00 +24°C° 0 mm 1 mps 730 mmHg 93%
    06:00 +22°C° 0 mm 0 mps 731 mmHg 92%
    07:00 +23°C° 0 mm 0 mps 731 mmHg 90%
    08:00 +26°C° 0 mm 1 mps 731 mmHg 86%
    09:00 +27°C° 0 mm 1 mps 731 mmHg 82%
    10:00 +28°C° 0 mm 1 mps 731 mmHg 77%
    11:00 +30°C° 0 mm 1 mps 731 mmHg 66%
    12:00 +33°C° 0 mm 1 mps 730 mmHg 55%
    13:00 +36°C° 0 mm 1 mps 730 mmHg 44%
    14:00 +35°C° 0 mm 1 mps 729 mmHg 45%
    15:00 +34°C° 0 mm 1 mps 729 mmHg 46%
    16:00 +34°C° 0 mm 1 mps 728 mmHg 47%
    17:00 +31°C° 0.1 mm 1 mps 728 mmHg 58%
    18:00 +29°C° 0.1 mm 1 mps 729 mmHg 68%
    19:00 +27°C° 0.1 mm 1 mps 729 mmHg 78%
    20:00 +26°C° 0 mm 1 mps 729 mmHg 81%
    21:00 +26°C° 0 mm 1 mps 730 mmHg 83%
    22:00 +25°C° 0 mm 1 mps 730 mmHg 85%
    23:00 +25°C° 0 mm 1 mps 730 mmHg 86%
    Mostrar más